• In Germany
  • List of Countries
  • For 7 days
  • Water Temperature
  • Satellite Maps
  • Weather Map
  • Weather Widgets
  • user-avatar
    Login

    Hourly Weather Sumgayit

    Today, 19 August, Saturday

    Time Temperature Precipitation Wind Pressure Humidity
    00:00 +28°C° 0 mm 8 mps 739 mmHg 50%
    01:00 +28°C° 0 mm 8 mps 739 mmHg 48%
    02:00 +28°C° 0 mm 7 mps 739 mmHg 46%
    03:00 +27°C° 0 mm 7 mps 739 mmHg 44%
    04:00 +27°C° 0 mm 7 mps 739 mmHg 44%
    05:00 +27°C° 0 mm 6 mps 739 mmHg 44%
    06:00 +27°C° 0 mm 6 mps 739 mmHg 44%
    07:00 +29°C° 0 mm 6 mps 740 mmHg 42%
    08:00 +30°C° 0 mm 6 mps 740 mmHg 39%
    09:00 +32°C° 0 mm 6 mps 740 mmHg 37%
    10:00 +33°C° 0 mm 6 mps 740 mmHg 34%
    11:00 +34°C° 0 mm 5 mps 740 mmHg 32%
    12:00 +34°C° 0 mm 5 mps 740 mmHg 30%
    13:00 +35°C° 0 mm 5 mps 740 mmHg 28%
    14:00 +35°C° 0 mm 5 mps 740 mmHg 25%
    15:00 +35°C° 0 mm 5 mps 740 mmHg 23%
    16:00 +35°C° 0 mm 5 mps 740 mmHg 24%
    17:00 +34°C° 0 mm 5 mps 740 mmHg 24%
    18:00 +33°C° 0 mm 4 mps 740 mmHg 24%
    19:00 +33°C° 0 mm 4 mps 740 mmHg 26%
    20:00 +31°C° 0 mm 3 mps 740 mmHg 28%
    21:00 +30°C° 0 mm 3 mps 740 mmHg 31%
    22:00 +30°C° 0 mm 3 mps 740 mmHg 32%
    23:00 +29°C° 0 mm 3 mps 740 mmHg 34%

    Tomorrow, 20 August, Sunday

    Time Temperature Precipitation Wind Pressure Humidity
    00:00 +29°C° 0 mm 3 mps 740 mmHg 35%
    01:00 +29°C° 0 mm 3 mps 740 mmHg 35%
    02:00 +28°C° 0 mm 2 mps 739 mmHg 35%
    03:00 +28°C° 0 mm 2 mps 739 mmHg 34%
    04:00 +28°C° 0 mm 3 mps 739 mmHg 35%
    05:00 +28°C° 0 mm 3 mps 740 mmHg 35%
    06:00 +28°C° 0 mm 3 mps 740 mmHg 35%
    07:00 +30°C° 0 mm 4 mps 740 mmHg 35%
    08:00 +32°C° 0 mm 5 mps 740 mmHg 35%
    09:00 +33°C° 0 mm 6 mps 741 mmHg 34%
    10:00 +34°C° 0 mm 6 mps 740 mmHg 33%
    11:00 +34°C° 0 mm 6 mps 740 mmHg 32%
    12:00 +35°C° 0 mm 7 mps 740 mmHg 31%
    13:00 +35°C° 0 mm 7 mps 740 mmHg 31%
    14:00 +35°C° 0 mm 7 mps 739 mmHg 30%
    15:00 +35°C° 0 mm 7 mps 739 mmHg 29%
    16:00 +34°C° 0 mm 6 mps 739 mmHg 30%
    17:00 +33°C° 0 mm 6 mps 739 mmHg 30%
    18:00 +33°C° 0 mm 5 mps 739 mmHg 31%
    19:00 +32°C° 0 mm 5 mps 739 mmHg 33%
    20:00 +30°C° 0 mm 4 mps 739 mmHg 34%
    21:00 +30°C° 0 mm 3 mps 739 mmHg 36%
    22:00 +29°C° 0 mm 3 mps 739 mmHg 37%
    23:00 +29°C° 0 mm 3 mps 739 mmHg 38%

    Day after tomorrow, 21 August, Monday

    Time Temperature Precipitation Wind Pressure Humidity
    00:00 +29°C° 0 mm 2 mps 738 mmHg 38%
    01:00 +28°C° 0 mm 2 mps 738 mmHg 38%
    02:00 +28°C° 0 mm 2 mps 738 mmHg 37%
    03:00 +28°C° 0 mm 1 mps 737 mmHg 37%
    04:00 +28°C° 0 mm 1 mps 738 mmHg 36%
    05:00 +28°C° 0 mm 1 mps 738 mmHg 35%
    06:00 +28°C° 0 mm 1 mps 738 mmHg 34%
    07:00 +30°C° 0 mm 2 mps 738 mmHg 32%
    08:00 +31°C° 0 mm 2 mps 738 mmHg 29%
    09:00 +34°C° 0 mm 3 mps 738 mmHg 27%
    10:00 +35°C° 0 mm 3 mps 738 mmHg 26%
    11:00 +35°C° 0 mm 4 mps 738 mmHg 25%
    12:00 +36°C° 0 mm 5 mps 737 mmHg 23%
    13:00 +36°C° 0 mm 5 mps 737 mmHg 23%
    14:00 +36°C° 0 mm 5 mps 737 mmHg 23%
    15:00 +37°C° 0 mm 5 mps 736 mmHg 22%
    16:00 +36°C° 0 mm 5 mps 736 mmHg 23%
    17:00 +35°C° 0 mm 5 mps 736 mmHg 24%
    18:00 +34°C° 0 mm 4 mps 736 mmHg 25%
    19:00 +33°C° 0 mm 4 mps 736 mmHg 27%
    20:00 +33°C° 0 mm 3 mps 736 mmHg 28%
    21:00 +31°C° 0 mm 3 mps 737 mmHg 30%
    22:00 +30°C° 0 mm 2 mps 736 mmHg 31%
    23:00 +30°C° 0 mm 2 mps 736 mmHg 31%

    22 August, Tuesday

    Time Temperature Precipitation Wind Pressure Humidity
    00:00 +29°C° 0 mm 2 mps 736 mmHg 32%
    01:00 +29°C° 0 mm 2 mps 736 mmHg 33%
    02:00 +29°C° 0 mm 2 mps 736 mmHg 34%
    03:00 +28°C° 0 mm 1 mps 736 mmHg 34%
    04:00 +28°C° 0 mm 2 mps 736 mmHg 35%
    05:00 +28°C° 0 mm 2 mps 736 mmHg 35%
    06:00 +28°C° 0 mm 2 mps 736 mmHg 35%
    07:00 +30°C° 0 mm 3 mps 736 mmHg 34%
    08:00 +31°C° 0 mm 3 mps 737 mmHg 34%
    09:00 +33°C° 0 mm 4 mps 737 mmHg 33%
    10:00 +34°C° 0 mm 5 mps 737 mmHg 32%
    11:00 +35°C° 0 mm 5 mps 736 mmHg 30%
    12:00 +36°C° 0 mm 6 mps 736 mmHg 29%
    13:00 +36°C° 0 mm 6 mps 736 mmHg 29%
    14:00 +36°C° 0 mm 7 mps 736 mmHg 28%
    15:00 +36°C° 0 mm 7 mps 735 mmHg 27%
    16:00 +35°C° 0 mm 6 mps 735 mmHg 28%
    17:00 +34°C° 0 mm 6 mps 735 mmHg 28%
    18:00 +33°C° 0 mm 5 mps 735 mmHg 29%
    19:00 +32°C° 0 mm 4 mps 736 mmHg 29%
    20:00 +31°C° 0 mm 3 mps 736 mmHg 30%
    21:00 +30°C° 0 mm 2 mps 736 mmHg 31%
    22:00 +30°C° 0 mm 2 mps 736 mmHg 31%
    23:00 +29°C° 0 mm 2 mps 736 mmHg 30%

    23 August, Wednesday

    Time Temperature Precipitation Wind Pressure Humidity
    00:00 +29°C° 0 mm 2 mps 736 mmHg 30%
    01:00 +29°C° 0 mm 2 mps 736 mmHg 30%
    02:00 +28°C° 0 mm 2 mps 736 mmHg 30%
    03:00 +28°C° 0 mm 2 mps 736 mmHg 30%
    04:00 +28°C° 0 mm 2 mps 736 mmHg 32%
    05:00 +28°C° 0 mm 2 mps 737 mmHg 33%
    06:00 +28°C° 0 mm 2 mps 737 mmHg 35%
    07:00 +30°C° 0 mm 3 mps 737 mmHg 33%
    08:00 +32°C° 0 mm 4 mps 738 mmHg 31%
    09:00 +34°C° 0 mm 5 mps 738 mmHg 29%
    10:00 +34°C° 0 mm 5 mps 738 mmHg 28%
    11:00 +35°C° 0 mm 6 mps 738 mmHg 27%
    12:00 +35°C° 0 mm 7 mps 738 mmHg 26%
    13:00 +35°C° 0 mm 6 mps 738 mmHg 25%
    14:00 +35°C° 0 mm 6 mps 737 mmHg 24%
    15:00 +35°C° 0 mm 6 mps 737 mmHg 23%
    16:00 +34°C° 0 mm 6 mps 737 mmHg 24%
    17:00 +34°C° 0 mm 5 mps 737 mmHg 24%
    18:00 +33°C° 0 mm 5 mps 737 mmHg 25%
    19:00 +32°C° 0 mm 4 mps 738 mmHg 26%
    20:00 +31°C° 0 mm 3 mps 738 mmHg 27%
    21:00 +30°C° 0 mm 2 mps 738 mmHg 28%
    22:00 +30°C° 0 mm 2 mps 738 mmHg 28%
    23:00 +29°C° 0 mm 2 mps 738 mmHg 27%

    24 August, Thursday

    Time Temperature Precipitation Wind Pressure Humidity
    00:00 +29°C° 0 mm 2 mps 738 mmHg 27%
    01:00 +29°C° 0 mm 2 mps 738 mmHg 27%
    02:00 +28°C° 0 mm 2 mps 738 mmHg 28%
    03:00 +28°C° 0 mm 2 mps 738 mmHg 28%
    04:00 +28°C° 0 mm 2 mps 738 mmHg 30%
    05:00 +28°C° 0 mm 2 mps 739 mmHg 32%
    06:00 +28°C° 0 mm 2 mps 739 mmHg 34%
    07:00 +30°C° 0 mm 2 mps 740 mmHg 32%
    08:00 +31°C° 0 mm 2 mps 740 mmHg 31%
    09:00 +34°C° 0 mm 3 mps 740 mmHg 29%
    10:00 +34°C° 0 mm 3 mps 740 mmHg 27%
    11:00 +35°C° 0 mm 4 mps 741 mmHg 26%
    12:00 +36°C° 0 mm 4 mps 741 mmHg 24%
    13:00 +36°C° 0 mm 5 mps 740 mmHg 23%
    14:00 +36°C° 0 mm 5 mps 740 mmHg 23%
    15:00 +36°C° 0 mm 5 mps 740 mmHg 22%
    16:00 +35°C° 0 mm 5 mps 740 mmHg 23%
    17:00 +34°C° 0 mm 5 mps 740 mmHg 24%
    18:00 +33°C° 0 mm 4 mps 740 mmHg 25%
    19:00 +32°C° 0 mm 4 mps 740 mmHg 27%
    20:00 +30°C° 0 mm 3 mps 740 mmHg 29%
    21:00 +30°C° 0 mm 2 mps 740 mmHg 30%
    22:00 +29°C° 0 mm 2 mps 739 mmHg 31%
    23:00 +29°C° 0 mm 2 mps 739 mmHg 32%
    Show more